Volk, WI

10:25 PM CDT on September 18, 2019 (GMT -0500)
Volk

Weather History for KVOK - August, 2019

Change the Weather History Date:

Thursday, August 22, 2019

  Actual Average Record
Temperature  
Mean Temperature 60 °F -  
Max Temperature 73 °F 76 °F 89 °F (2014)
Min Temperature 46 °F 60 °F 44 °F (2011)
Degree Days  
Heating Degree Days 6    
Growing Degree Days 10 (Base 50)    
Moisture  
Dew Point 53 °F    
Average Humidity 92    
Maximum Humidity 100    
Minimum Humidity 50    
Precipitation  
Precipitation 0.00 in - - ()
Sea Level Pressure  
Sea Level Pressure 30.06 in    
Wind  
Wind Speed 1 mph ()    
Max Wind Speed 6 mph    
Max Gust Speed -    
Visibility 5.6 miles    
Events Fog    
Averages and records for this station are not official NWS values.
T = Trace of Precipitation, MM = Missing Value Source: Averaged Metar Reports

Daily Weather History Graph

Daily Weather History Graph

Search for Another Location

Airport or City:

Astronomy

Aug. 22, 2019 Rise Set
Actual Time 6:12 AM CDT 7:54 PM CDT
Civil Twilight 5:42 AM CDT 8:24 PM CDT
Nautical Twilight 5:05 AM CDT 9:01 PM CDT
Astronomical Twilight 4:24 AM CDT 9:41 PM CDT
Moon 11:30 PM CDT (8/22) 1:01 PM CDT (8/22)
Length of Visible Light 14h 42m
Length of Day
13h 41m
Waning Gibbous, 59% of the Moon is Illuminated
Aug 22
Waning Gibbous
Aug 23
Last Quarter
Aug 30
New
Sep 5
First Quarter
Sep 13
Full

Hourly Weather History & Observations

Time (CDT) Temp. Windchill Dew Point Humidity Pressure Visibility Wind Dir Wind Speed Gust Speed Precip Events Conditions
12:01 AM 50.0 °F - 50.0 °F 100% 30.05 in 0.6 mi Calm Calm - N/A   Clear
12:06 AM 51.8 °F - 51.8 °F 100% 30.05 in 0.9 mi Calm Calm - N/A   Clear
12:11 AM 51.8 °F - 51.8 °F 100% 30.05 in 1.0 mi Calm Calm - N/A   Clear
12:26 AM 50.0 °F - 50.0 °F 100% 30.05 in 0.9 mi Calm Calm - N/A   Clear
12:31 AM 50.0 °F - 50.0 °F 100% 30.05 in 0.8 mi WNW 3.5 mph - N/A   Clear
12:36 AM 50.0 °F - 50.0 °F 100% 30.05 in 0.9 mi WNW 3.5 mph - N/A   Clear
12:41 AM 50.0 °F - 50.0 °F 100% 30.05 in 1.0 mi Calm Calm - N/A   Clear
12:46 AM 50.0 °F - 50.0 °F 100% 30.05 in 0.5 mi Calm Calm - N/A Fog Fog
12:51 AM 48.2 °F - 48.2 °F 100% 30.05 in 0.4 mi Calm Calm - N/A Fog Fog
12:56 AM 48.7 °F - 48.7 °F 100% 30.05 in 0.5 mi Calm Calm - N/A Fog Fog
1:06 AM 48.2 °F - 48.2 °F 100% 30.06 in 0.4 mi Calm Calm - N/A Fog Fog
1:11 AM 50.0 °F - 50.0 °F 100% 30.06 in 0.5 mi Calm Calm - N/A Fog Fog
1:36 AM 50.0 °F - 50.0 °F 100% 30.05 in 0.9 mi Calm Calm - N/A   Clear
1:41 AM 50.0 °F - 50.0 °F 100% 30.05 in 4.0 mi Calm Calm - N/A   Clear
1:56 AM 47.5 °F - 47.5 °F 100% 30.05 in 10.0 mi Calm Calm - N/A   Clear
2:56 AM 48.2 °F - 48.2 °F 100% 30.05 in 10.0 mi Calm Calm - N/A   Clear
3:06 AM 48.2 °F - 48.2 °F 100% 30.05 in 1.9 mi Calm Calm - N/A   Clear
3:11 AM 48.2 °F - 48.2 °F 100% 30.04 in 0.5 mi Calm Calm - N/A Fog Fog
3:41 AM 46.4 °F 43.5 °F 46.4 °F 100% 30.03 in 3.0 mi ESE 5.8 mph - N/A   Clear
3:56 AM 47.1 °F - 47.1 °F 100% 30.03 in 3.0 mi ESE 3.5 mph - N/A   Clear
4:56 AM 48.2 °F - 48.2 °F 100% 30.04 in 10.0 mi West 3.5 mph - N/A   Partly Cloudy
5:56 AM 46.4 °F 45.2 °F 46.4 °F 100% 30.05 in 7.0 mi ESE 3.5 mph - N/A   Scattered Clouds
6:56 AM 50.0 °F - 50.0 °F 100% 30.06 in 10.0 mi Calm Calm - N/A   Mostly Cloudy
7:56 AM 53.6 °F - 53.6 °F 100% 30.08 in 10.0 mi Calm Calm - N/A   Mostly Cloudy
8:56 AM 59.0 °F - 59.0 °F 100% 30.08 in 10.0 mi Calm Calm - N/A   Scattered Clouds
9:56 AM 68.0 °F - 55.4 °F 64% 30.08 in 10.0 mi SSE 4.6 mph - N/A   Scattered Clouds
10:56 AM 71.6 °F - 57.2 °F 60% 30.08 in 10.0 mi South 3.5 mph - N/A   Mostly Cloudy
11:56 AM 73.4 °F - 53.6 °F 50% 30.07 in 10.0 mi Calm Calm - N/A   Mostly Cloudy
1:56 PM 73.4 °F - 59.0 °F 61% 30.07 in 10.0 mi NNE 3.5 mph - N/A   Mostly Cloudy
2:56 PM 71.6 °F - 59.0 °F 64% 30.07 in 10.0 mi NE 4.6 mph - N/A   Mostly Cloudy
3:56 PM 71.6 °F - 57.2 °F 60% 30.06 in 10.0 mi ESE 4.6 mph - N/A   Mostly Cloudy
6:56 PM 67.1 °F - 59.5 °F 77% 30.07 in 10.0 mi ENE 5.8 mph - N/A   Mostly Cloudy
7:56 PM 66.2 °F - 60.8 °F 83% 30.09 in 10.0 mi ESE 3.5 mph - N/A   Mostly Cloudy
8:56 PM 62.6 °F - 62.6 °F 100% 30.11 in 10.0 mi East 5.8 mph - N/A   Partly Cloudy
9:56 PM 62.2 °F - 61.3 °F 97% 30.12 in 10.0 mi East 5.8 mph - N/A   Mostly Cloudy
10:56 PM 60.8 °F - 60.8 °F 100% 30.14 in 10.0 mi East 4.6 mph - N/A   Mostly Cloudy
11:56 PM 59.0 °F - 59.0 °F 100% 30.14 in 8.0 mi Calm Calm - N/A   Partly Cloudy